When you browse on this site, cookies collect data to enhance your experience and personalize the content and advertising you see.
Visit our Privacy Policy to learn more. By continuing to use the site, you agree to this use of cookies and data.
  • In Österreich
  • Länderverzeichnis
  • Für 7 Tage
  • Wassertemperatur
  • Satellitenkarten
  • Wetterkarte
  • News
  • Widgets
  • user-avatar
    Anmelden

    Stündliche Wetter Cottonwood Heights

    Heute, 21 April, Sonntag

    Zeit Temperatur Niederschläge Wind Luftdruck Luftfeuchtigkeit
    00:00 +12°C° 0.1 mm 1 m/S 627 mmHg 54%
    01:00 +12°C° 0.1 mm 1 m/S 627 mmHg 58%
    02:00 +10°C° 0.1 mm 2 m/S 627 mmHg 63%
    03:00 +11°C° 0 mm 1 m/S 627 mmHg 66%
    04:00 +10°C° 0 mm 1 m/S 627 mmHg 69%
    05:00 +10°C° 0 mm 1 m/S 627 mmHg 73%
    06:00 +10°C° 0.2 mm 1 m/S 627 mmHg 71%
    07:00 +11°C° 0.2 mm 1 m/S 628 mmHg 69%
    08:00 +11°C° 0.2 mm 1 m/S 628 mmHg 68%
    09:00 +12°C° 0.9 mm 1 m/S 629 mmHg 68%
    10:00 +12°C° 0.9 mm 1 m/S 629 mmHg 69%
    11:00 +12°C° 0.9 mm 2 m/S 629 mmHg 70%
    12:00 +12°C° 0.5 mm 2 m/S 629 mmHg 72%
    13:00 +12°C° 0.5 mm 2 m/S 629 mmHg 73%
    14:00 +11°C° 0.5 mm 3 m/S 630 mmHg 75%
    15:00 +10°C° 0.4 mm 3 m/S 629 mmHg 78%
    16:00 +9°C° 0.4 mm 3 m/S 629 mmHg 81%
    17:00 +9°C° 0.4 mm 2 m/S 629 mmHg 83%
    18:00 +8°C° 0.1 mm 2 m/S 630 mmHg 84%
    19:00 +8°C° 0.1 mm 2 m/S 630 mmHg 84%
    20:00 +9°C° 0.1 mm 1 m/S 630 mmHg 85%
    21:00 +8°C° 0 mm 1 m/S 631 mmHg 85%
    22:00 +8°C° 0 mm 1 m/S 631 mmHg 86%
    23:00 +8°C° 0 mm 1 m/S 631 mmHg 87%

    Morgen, 22 April, Montag

    Zeit Temperatur Niederschläge Wind Luftdruck Luftfeuchtigkeit
    00:00 +8°C° 0 mm 1 m/S 631 mmHg 87%
    01:00 +7°C° 0 mm 0 m/S 631 mmHg 87%
    02:00 +6°C° 0 mm 0 m/S 631 mmHg 87%
    03:00 +6°C° 0 mm 0 m/S 631 mmHg 88%
    04:00 +6°C° 0 mm 0 m/S 632 mmHg 88%
    05:00 +6°C° 0 mm 0 m/S 632 mmHg 88%
    06:00 +7°C° 0.1 mm 0 m/S 632 mmHg 86%
    07:00 +8°C° 0.1 mm 1 m/S 633 mmHg 83%
    08:00 +9°C° 0.1 mm 1 m/S 634 mmHg 81%
    09:00 +9°C° 0.1 mm 2 m/S 634 mmHg 79%
    10:00 +10°C° 0.1 mm 2 m/S 634 mmHg 76%
    11:00 +10°C° 0.1 mm 2 m/S 635 mmHg 73%
    12:00 +11°C° 0.1 mm 3 m/S 635 mmHg 72%
    13:00 +12°C° 0.1 mm 3 m/S 635 mmHg 70%
    14:00 +12°C° 0.1 mm 3 m/S 635 mmHg 68%
    15:00 +12°C° 0 mm 3 m/S 635 mmHg 67%
    16:00 +12°C° 0 mm 3 m/S 635 mmHg 66%
    17:00 +13°C° 0 mm 3 m/S 635 mmHg 65%
    18:00 +11°C° 0 mm 3 m/S 635 mmHg 69%
    19:00 +10°C° 0 mm 2 m/S 635 mmHg 73%
    20:00 +9°C° 0 mm 2 m/S 634 mmHg 78%
    21:00 +9°C° 0 mm 2 m/S 635 mmHg 78%
    22:00 +9°C° 0 mm 1 m/S 635 mmHg 79%
    23:00 +9°C° 0 mm 1 m/S 635 mmHg 80%

    übermorgen, 23 April, Dienstag

    Zeit Temperatur Niederschläge Wind Luftdruck Luftfeuchtigkeit
    00:00 +9°C° 0 mm 1 m/S 635 mmHg 80%
    01:00 +8°C° 0 mm 1 m/S 635 mmHg 79%
    02:00 +8°C° 0 mm 1 m/S 635 mmHg 79%
    03:00 +8°C° 0 mm 1 m/S 635 mmHg 78%
    04:00 +7°C° 0 mm 1 m/S 634 mmHg 77%
    05:00 +7°C° 0 mm 1 m/S 634 mmHg 76%
    06:00 +9°C° 0 mm 1 m/S 635 mmHg 70%
    07:00 +10°C° 0 mm 1 m/S 636 mmHg 64%
    08:00 +12°C° 0 mm 1 m/S 637 mmHg 58%
    09:00 +13°C° 0 mm 1 m/S 637 mmHg 55%
    10:00 +15°C° 0 mm 2 m/S 637 mmHg 51%
    11:00 +16°C° 0 mm 2 m/S 638 mmHg 48%
    12:00 +17°C° 0 mm 3 m/S 638 mmHg 46%
    13:00 +18°C° 0 mm 3 m/S 637 mmHg 45%
    14:00 +18°C° 0 mm 3 m/S 637 mmHg 44%
    15:00 +18°C° 0 mm 3 m/S 636 mmHg 44%
    16:00 +17°C° 0 mm 3 m/S 636 mmHg 45%
    17:00 +17°C° 0 mm 3 m/S 635 mmHg 46%
    18:00 +15°C° 0 mm 2 m/S 635 mmHg 50%
    19:00 +14°C° 0 mm 1 m/S 635 mmHg 55%
    20:00 +12°C° 0 mm 1 m/S 635 mmHg 60%
    21:00 +12°C° 0 mm 1 m/S 635 mmHg 62%
    22:00 +11°C° 0 mm 1 m/S 635 mmHg 65%
    23:00 +11°C° 0 mm 1 m/S 635 mmHg 67%

    24 April, Mittwoch

    Zeit Temperatur Niederschläge Wind Luftdruck Luftfeuchtigkeit
    00:00 +11°C° 0 mm 1 m/S 635 mmHg 68%
    01:00 +10°C° 0 mm 1 m/S 635 mmHg 69%
    02:00 +10°C° 0 mm 1 m/S 634 mmHg 70%
    03:00 +10°C° 0 mm 1 m/S 634 mmHg 70%
    04:00 +10°C° 0 mm 1 m/S 634 mmHg 71%
    05:00 +9°C° 0 mm 1 m/S 634 mmHg 71%
    06:00 +11°C° 0 mm 1 m/S 635 mmHg 66%
    07:00 +13°C° 0 mm 1 m/S 636 mmHg 60%
    08:00 +14°C° 0 mm 1 m/S 636 mmHg 55%
    09:00 +16°C° 0 mm 1 m/S 637 mmHg 51%
    10:00 +17°C° 0 mm 2 m/S 637 mmHg 47%
    11:00 +19°C° 0 mm 2 m/S 637 mmHg 43%
    12:00 +19°C° 0 mm 3 m/S 637 mmHg 41%
    13:00 +20°C° 0 mm 3 m/S 637 mmHg 39%
    14:00 +20°C° 0 mm 3 m/S 637 mmHg 38%
    15:00 +20°C° 0 mm 3 m/S 637 mmHg 38%
    16:00 +20°C° 0 mm 3 m/S 636 mmHg 38%
    17:00 +19°C° 0 mm 3 m/S 636 mmHg 38%
    18:00 +18°C° 0 mm 2 m/S 636 mmHg 43%
    19:00 +16°C° 0 mm 1 m/S 635 mmHg 48%
    20:00 +13°C° 0 mm 0 m/S 635 mmHg 53%
    21:00 +14°C° 0 mm 1 m/S 635 mmHg 54%
    22:00 +14°C° 0 mm 1 m/S 635 mmHg 55%
    23:00 +13°C° 0 mm 1 m/S 635 mmHg 56%

    25 April, Donnerstag

    Zeit Temperatur Niederschläge Wind Luftdruck Luftfeuchtigkeit
    00:00 +13°C° 0 mm 2 m/S 635 mmHg 57%
    01:00 +13°C° 0 mm 2 m/S 635 mmHg 58%
    02:00 +12°C° 0 mm 2 m/S 635 mmHg 59%
    03:00 +12°C° 0 mm 2 m/S 635 mmHg 60%
    04:00 +12°C° 0 mm 2 m/S 635 mmHg 60%
    05:00 +10°C° 0 mm 2 m/S 635 mmHg 61%
    06:00 +13°C° 0 mm 2 m/S 636 mmHg 58%
    07:00 +15°C° 0 mm 2 m/S 636 mmHg 54%
    08:00 +16°C° 0 mm 2 m/S 637 mmHg 51%
    09:00 +18°C° 0 mm 2 m/S 637 mmHg 47%
    10:00 +20°C° 0 mm 2 m/S 638 mmHg 42%
    11:00 +23°C° 0 mm 2 m/S 638 mmHg 38%
    12:00 +23°C° 0 mm 2 m/S 638 mmHg 36%
    13:00 +24°C° 0 mm 2 m/S 638 mmHg 34%
    14:00 +25°C° 0 mm 2 m/S 638 mmHg 31%
    15:00 +25°C° 0 mm 2 m/S 637 mmHg 32%
    16:00 +24°C° 0 mm 2 m/S 637 mmHg 32%
    17:00 +24°C° 0 mm 1 m/S 636 mmHg 33%
    18:00 +23°C° 0.1 mm 2 m/S 636 mmHg 37%
    19:00 +20°C° 0.1 mm 2 m/S 635 mmHg 41%
    20:00 +18°C° 0.1 mm 2 m/S 635 mmHg 46%
    21:00 +17°C° 0.1 mm 2 m/S 635 mmHg 46%
    22:00 +17°C° 0.1 mm 2 m/S 635 mmHg 47%
    23:00 +16°C° 0.1 mm 2 m/S 635 mmHg 47%

    26 April, Freitag

    Zeit Temperatur Niederschläge Wind Luftdruck Luftfeuchtigkeit
    00:00 +16°C° 0.2 mm 2 m/S 634 mmHg 49%
    01:00 +15°C° 0.2 mm 2 m/S 634 mmHg 50%
    02:00 +14°C° 0.2 mm 3 m/S 634 mmHg 51%
    03:00 +13°C° 0.4 mm 3 m/S 633 mmHg 52%
    04:00 +13°C° 0.4 mm 3 m/S 633 mmHg 54%
    05:00 +13°C° 0.4 mm 3 m/S 633 mmHg 55%
    06:00 +14°C° 0.1 mm 3 m/S 634 mmHg 52%
    07:00 +17°C° 0.1 mm 3 m/S 634 mmHg 49%
    08:00 +18°C° 0.1 mm 3 m/S 635 mmHg 46%
    09:00 +20°C° 0 mm 4 m/S 635 mmHg 40%
    10:00 +22°C° 0 mm 5 m/S 635 mmHg 33%
    11:00 +24°C° 0 mm 6 m/S 636 mmHg 27%
    12:00 +24°C° 0 mm 6 m/S 635 mmHg 25%
    13:00 +26°C° 0 mm 6 m/S 635 mmHg 24%
    14:00 +26°C° 0 mm 7 m/S 635 mmHg 22%
    15:00 +26°C° 0 mm 6 m/S 634 mmHg 23%
    16:00 +26°C° 0 mm 6 m/S 634 mmHg 23%
    17:00 +24°C° 0 mm 6 m/S 633 mmHg 23%
    18:00 +22°C° 0 mm 5 m/S 633 mmHg 26%
    19:00 +21°C° 0 mm 4 m/S 632 mmHg 29%
    20:00 +19°C° 0 mm 4 m/S 631 mmHg 31%
    21:00 +18°C° 0 mm 4 m/S 631 mmHg 31%
    22:00 +17°C° 0 mm 4 m/S 631 mmHg 31%
    23:00 +15°C° 0 mm 4 m/S 631 mmHg 32%
    Mehr zeigen